TimeMST,TemperatureF,Dew PointF,Humidity,Sea Level PressureIn,VisibilityMPH,Wind Direction,Wind SpeedMPH,Gust SpeedMPH,PrecipitationIn,Events,Conditions,WindDirDegrees,DateUTC
12:53 AM,42.1,21.9,45,30.16,10.0,ESE,8.1,-,N/A,,Clear,120,2013-01-06 07:53:00
1:53 AM,39.2,21.2,49,30.20,10.0,SE,11.5,-,N/A,,Clear,140,2013-01-06 08:53:00
2:53 AM,41.0,21.9,47,30.15,10.0,SE,10.4,-,N/A,,Clear,140,2013-01-06 09:53:00
3:53 AM,41.0,19.9,43,30.14,10.0,SSE,12.7,-,N/A,,Clear,150,2013-01-06 10:53:00
4:53 AM,42.8,19.4,39,30.16,10.0,SSE,5.8,-,N/A,,Clear,150,2013-01-06 11:53:00
5:53 AM,39.0,21.9,50,30.13,10.0,South,8.1,-,N/A,,Clear,170,2013-01-06 12:53:00
6:53 AM,43.0,21.0,42,30.13,10.0,SSE,12.7,-,N/A,,Clear,160,2013-01-06 13:53:00
7:53 AM,39.9,21.9,49,30.15,10.0,South,11.5,-,N/A,,Clear,170,2013-01-06 14:53:00
8:53 AM,48.0,18.0,30,30.16,10.0,SE,16.1,-,N/A,,Clear,140,2013-01-06 15:53:00
9:53 AM,52.0,17.1,25,30.14,10.0,ESE,13.8,-,N/A,,Clear,120,2013-01-06 16:53:00
10:53 AM,57.0,17.1,21,30.12,10.0,SE,16.1,-,N/A,,Clear,140,2013-01-06 17:53:00
11:53 AM,61.0,17.1,18,30.07,10.0,SSE,16.1,-,N/A,,Clear,150,2013-01-06 18:53:00
12:53 PM,63.0,15.1,16,30.01,10.0,SSE,8.1,-,N/A,,Clear,150,2013-01-06 19:53:00
1:53 PM,64.9,14.0,14,29.98,10.0,ESE,10.4,-,N/A,,Clear,120,2013-01-06 20:53:00
2:53 PM,64.9,15.1,15,29.95,10.0,ESE,10.4,-,N/A,,Clear,120,2013-01-06 21:53:00
3:53 PM,64.9,16.0,15,29.93,10.0,ESE,13.8,-,N/A,,Clear,120,2013-01-06 22:53:00
4:53 PM,64.9,16.0,15,29.92,10.0,ESE,10.4,-,N/A,,Clear,120,2013-01-06 23:53:00
5:53 PM,60.1,17.1,19,29.93,10.0,ESE,5.8,-,N/A,,Clear,120,2013-01-07 00:53:00
6:53 PM,55.0,21.0,27,29.93,10.0,NNW,3.5,-,N/A,,Clear,340,2013-01-07 01:53:00
7:53 PM,51.1,23.0,33,29.94,10.0,Calm,Calm,-,N/A,,Clear,0,2013-01-07 02:53:00
8:53 PM,48.9,24.1,38,29.92,10.0,Calm,Calm,-,N/A,,Clear,0,2013-01-07 03:53:00
9:53 PM,44.1,24.1,45,29.94,10.0,WSW,6.9,-,N/A,,Clear,250,2013-01-07 04:53:00
10:53 PM,43.0,25.0,49,29.94,10.0,WSW,3.5,-,N/A,,Clear,250,2013-01-07 05:53:00
11:53 PM,41.0,25.0,53,29.92,10.0,Calm,Calm,-,N/A,,Clear,0,2013-01-07 06:53:00